Regional Weather Roundup
Issued by NWS

Home | Current Version | Previous Version | Graphics & Text | Print | Product List | Glossary On
Versions: 1 2 3 4 5 6 7 8 9 10 11 12 13 14 15 16 17 18 19 20 21 22 23 24 25 26 27 28 29 30 31 32 33 34 35 36 37 38 39 40 41 42 43 44 45 46 47 48 49 50
000
ASUS43 KDTX 300910
RWRMI
MICHIGAN HOURLY REGIONAL WEATHER ROUNDUP
NATIONAL WEATHER SERVICE DETROIT/PONTIAC MI
500 AM EDT WED JUL 30 2014

NOTE: "FAIR" INDICATES FEW OR NO CLOUDS BELOW 12,000 FEET WITH NO
SIGNIFICANT WEATHER AND/OR OBSTRUCTION TO VISIBILITY.

MIZ047>049-052>055-059>063-066>070-074>076-081>083-301000-
SOUTHEAST LOWER MICHIGAN

CITY           SKY/WX    TMP DP  RH WIND       PRES   REMARKS
ADRIAN         PTCLDY    57  55  93 NW3       29.99S
ALMA           MOCLDY    53  52  97 CALM      29.98S FOG
ANN ARBOR      PTCLDY    56  53  90 W5        29.97S
BAD AXE        CLOUDY    54  54 100 CALM      29.95S
DETROIT CITY   MOCLDY    62  55  77 W5        29.96S
DETROIT        CLOUDY    58  55  90 W7        29.97S
FLINT          PTCLDY    56  53  90 CALM      29.97R
GROSSE ILE     MOCLDY    61  55  82 W5        29.96S
HILLSDALE      MOCLDY    57  57  99 CALM      29.99R
HOWELL         PTCLDY    54  53  99 W5        29.97F FOG

CITY           SKY/WX    TMP DP  RH WIND       PRES   REMARKS
JACKSON        PTCLDY    55  53  93 CALM      29.98F FOG
LAMBERTVILLE   PTCLDY    59  54  82 W3        29.98S
LANSING        CLEAR     55  53  93 CALM      29.98S FOG
LAPEER         NOT AVBL
MASON          PTCLDY    53  52  95 CALM      29.98S FOG
MONROE         PTCLDY    57  55  94 CALM      29.96S
MT. CLEMENS    MOCLDY    57  57 100 W6        29.95R FOG
PONTIAC        PTCLDY    57  54  89 NW5       29.96S
PORT HOPE        N/A     58  55  90 W3        29.93R
PORT HURON     PTCLDY    52  52 100 CALM      29.95S FOG
TRI CITIES     CLEAR     56  54  93 W3        29.97S
YPSILANTI      PTCLDY    62  55  77 W6        29.97S
$$
MIZ043>046-050>051-056>058-064>065-071>073-077>080-301000-
SOUTHWEST LOWER MICHIGAN

CITY           SKY/WX    TMP DP  RH WIND       PRES   REMARKS
BATTLE CREEK   CLEAR     57  54  89 SW3       29.99S
BENTON HARBOR  CLEAR     54  54 100 CALM      30.00R
BIG RAPIDS     CLOUDY    55  55 100 CALM      29.97S
COLDWATER      MOCLDY    57  56  95 CALM      29.99S
HOLLAND        CLEAR     56  53  90 CALM      29.99S
GRAND RAPIDS   CLEAR     58  56  93 NW5       29.98S
KALAMAZOO      CLEAR     57  55  93 CALM      29.99R FOG
MARSHALL       MOCLDY    52  52  99 CALM      29.98R FOG
MUSKEGON       PTCLDY    54  51  90 CALM      29.98S
$$
MIZ016>042-301000-
NORTHERN LOWER MICHIGAN

CITY           SKY/WX    TMP DP  RH WIND       PRES   REMARKS
ALPENA         CLEAR     51  50  96 W5        29.95R
BEAVER ISLAND  MOCLDY    55  55 100 NW8       29.97S
BELLAIRE       FOG       52  51  96 CALM      29.97S VSB 1/4
CADILLAC       CLOUDY    54  54 100 CALM      29.98R
CHARLEVOIX     CLEAR     52  52  97 W5        29.99S
FRANKFORT      FOG       52  50  92 CALM      29.98R VSB 3/4
GAYLORD        CLEAR     49  48  97 CALM      29.97R
GRAYLING       FOG       54  54 100 CALM      29.98S VSB 1/4
HARBOR SPRINGS PTCLDY    51  50  94 CALM      29.96S
HOUGHTON LAKE  MOCLDY    52  51  97 W3        29.98R FOG
MANISTEE         N/A     54  52  94 CALM      29.99R VSB 1/2
OSCODA         MOCLDY    52  51  97 CALM      29.94S
PELLSTON       PTCLDY    50  49  96 W3        29.96S
TRAVERSE CITY  CLEAR     53  50  89 CALM      29.97R
$$
MIZ007>008-015-301000-
EASTERN UPPER MICHIGAN

CITY           SKY/WX    TMP DP  RH WIND       PRES   REMARKS
KINROSS        CLOUDY    50  50 100 N10       29.96S VSB 1/2
MACKINAC ISLAN PTCLDY    49  49 100 N6        29.96R
NEWBERRY       FOG       49  49  99 N9        29.98R VSB 1/2
S. S. MARIE    FOG       50  48  93 NW6       29.96S VSB 1/2
$$
MIZ004>006-011>014-085-301000-
CENTRAL UPPER MICHIGAN

CITY           SKY/WX    TMP DP  RH WIND       PRES   REMARKS
MANISTIQUE     FOG       50  50 100 NW3       29.98R VSB 1/4
ESCANABA         N/A     48  46  93 CALM      29.99S VSB 1/2
MENOMINEE        N/A     54  50  87 CALM      30.00R VSB 1/2
SAWYER-GWINN   CLEAR     48  47  94 N5        30.01R
$$
MIZ001>003-009>011-084-301000-
WESTERN UPPER MICHIGAN

CITY           SKY/WX    TMP DP  RH WIND       PRES   REMARKS
IRON MOUNTAIN  CLEAR     49  47  93 N3        30.01S
HOUGHTON       CLEAR     46  43  89 NW7       30.02S
COPPER HARBOR    N/A     50  46  86 W3        30.01S
$$

ABBREVIATIONS USED IN REMARKS
   TC - TEMPERATURE IN CELSIUS
  WCI - WIND CHILL INDEX
   HX - HEAT INDEX
  VSB - VISIBILITY



USA.gov is the U.S. government's official web portal to all federal, state and local government web resources and services.